Regional Weather Roundup
Issued by NWS Goodland, KS

Home | Current Version | Previous Version | Text Only | Print | Product List | Glossary On
Versions: 1 2 3 4 5 6 7 8 9 10 11 12 13 14 15 16 17 18 19 20 21 22 23 24 25 26 27 28 29 30 31 32 33 34 35 36 37 38 39 40 41 42 43 44 45 46 47 48 49 50
000
ASUS43 KGLD 190508
RWRGLD

GOODLAND FORECAST AREA HOURLY WEATHER ROUNDUP
NATIONAL WEATHER SERVICE GOODLAND KS
1100 PM MDT FRI APR 18 2014

...OFFICIAL OBSERVATIONS...

CITY           SKY/WX    TMP DP  RH WIND       PRES   REMARKS
GOODLAND KS    MOCLDY    55  43  63 S24       29.93S
HILL CITY KS   PTCLDY    59  43  55 S13       29.99F
IMPERIAL NEB   CLOUDY    59  42  53 S22       29.89F
MCCOOK NEB     MOCLDY    60  41  49 S21G30    29.93F
AKRON CO       CLOUDY    57  39  51 S14       29.87F
BURLINGTON CO  MOCLDY    55  42  61 S23       29.91F
LIMON CO       CLOUDY    45  33  63 N7        29.93F
$$

...UNOFFICIAL OBSERVATIONS...

CITY           SKY/WX    TMP DP  RH WIND       PRES   REMARKS
COLBY KS       CLEAR     57  45  62 SE24G32   29.95F
LENORA KS        N/A     58  32  37 S22         N/A
LEOTI KS         N/A     57  32  39 SE14        N/A
NORTON KS      CLEAR     54  39  58 SE12G17   29.97S
OBERLIN KS     FAIR      57  39  51 S14G23    29.94F
SHARON SPRINGS   N/A     56  44  64 SE20G29     N/A
ST FRANCIS KS  MOCLDY    55  41  58 SE22G30   29.88
WAKEENEY KS      N/A     59  39  48 MISG        N/A
KIT CARSON CO    N/A     59  42  52 MISG        N/A
$$



USA.gov is the U.S. government's official web portal to all federal, state and local government web resources and services.